Overview Statistics Trail Chart Weather Telemetry Raw packets
 

This is the latest recevied weather packets stored in our database for station/object IZ8FMH-11. If no packets are shown the sender has not sent any weather packets the latest 10 day(s).

<< 4 5 6 7 8 9 10 >>
Time Temp. Humidity Pressure Rain* Wind** Luminosity Snow
1788347102 30° C 63% 1015.5 hPa - - - -
1788345302 30° C 65% 1015.5 hPa - - - -
1788343502 29.44° C 63% 1015.8 hPa - - - -
1788341702 29.44° C 61% 1015.7 hPa - - - -
1788339902 28.89° C 60% 1015.8 hPa - - - -
1788338102 28.89° C 58% 1015.6 hPa - - - -
1788334502 27.78° C 64% 1015.1 hPa - - - -
1788332702 27.78° C 61% 1015.4 hPa - - - -
1788330902 27.22° C 57% 1015.3 hPa - - - -
1788329102 26.67° C 52% 1015.3 hPa - - - -
1788327302 26.67° C 52% 1015.2 hPa - - - -
1788323701 26.67° C 49% 1014.7 hPa - - - -
1788321901 26.67° C 49% 1014.4 hPa - - - -
1788320101 26.67° C 51% 1014.4 hPa - - - -
1788318301 27.22° C 49% 1014.6 hPa - - - -
1788316501 27.22° C 50% 1014.7 hPa - - - -
1788314701 27.22° C 52% 1014.7 hPa - - - -
1788312901 27.22° C 49% 1014.7 hPa - - - -
1788311101 27.78° C 45% 1014.6 hPa - - - -
1788309301 27.78° C 44% 1014.8 hPa - - - -
1788307502 27.78° C 43% 1015.1 hPa - - - -
1788305702 27.78° C 42% 1015.2 hPa - - - -
1788303902 27.78° C 42% 1014.9 hPa - - - -
1788302102 28.33° C 42% 1014.9 hPa - - - -
1788300302 28.33° C 41% 1014.9 hPa - - - -

* Rain since midnight (hover to see other rain measurements)
** Current wind speed in m/s (hover to see current wind gust speed)